Terug naar catalogus

FENGYUN 1C DEB

ActiefPO
NORAD 32169·DEBRIS·🇨🇳 China

Gelanceerd May 10, 1999 vanaf Taiyuan Satellite Launch Center

Loading…

Volgende Passages (komende 24 uur)

TLE

VersSource: Space-Track

Epoch: Sep 13, 2026, 13:12 UTC

1 32169U 99025CTP 26256.55065050  .00015414  00000-0  19647-2 0  9997
2 32169  98.5390 105.7338 0029067 338.2187  21.7786 14.81312283  6673

Volg FENGYUN 1C DEB in realtime met AllMySat

Download on the App Store